Temperature
21 21 21 20 20 20 20 20 19 19 19 19 19 19 19 18 18 18 18 18 18 18 18 18 18 18 18 18 18 18 17 17 17 17 17 17 17 17 17 17 17 17 17
21 21 21 21 20 20 20 20 19 19 19 19 19 19 19 18 18 18 18 18 18 18 18 18 18 18 18 18 18 18 17 17 17 17 17 17 17 17 17 17 17 17 17
21 21 21 21 21 20 20 20 20 19 19 19 19 19 19 19 19 18 18 18 18 18 18 18 18 18 18 18 18 18 18 17 17 17 17 17 17 17 17 17 17 17 17
21 21 21 21 21 21 20 20 20 20 19 19 19 19 19 19 19 19 18 18 18 18 18 18 18 18 18 18 18 18 18 17 17 17 17 17 17 17 17 17 17 17 17
21 22 22 22 21 21 21 20 20 20 19 19 19 19 19 19 19 19 19 18 18 18 18 18 18 18 18 18 17 17 17 17 17 17 17 17 17 17 17 16 17 17 17
22 22 22 22 21 21 21 20 20 20 20 19 19 19 19 19 19 19 19 18 18 18 18 18 18 18 18 18 17 17 17 17 17 17 17 17 17 17 17 17 17 17 17
22 22 22 21 21 21 21 21 20 20 20 19 19 19 19 19 19 19 19 18 18 18 18 18 18 18 18 17 17 17 17 17 17 17 17 17 17 17 17 17 17 16 16
22 22 22 22 22 21 21 21 20 20 20 20 19 19 19 19 19 18 18 18 18 18 18 18 18 18 18 17 17 17 17 17 17 17 17 17 17 17 17 17 17 16 16
22 22 22 22 22 22 21 21 21 20 20 20 19 19 19 19 19 18 18 18 18 18 18 18 18 18 17 17 17 17 17 17 17 17 17 17 17 17 17 16 16 16 16
21 22 22 22 22 21 21 21 21 20 20 20 20 19 19 19 19 18 18 18 18 18 18 18 18 17 17 17 17 17 17 17 17 17 17 17 17 17 17 16 16 16 16
21 22 22 21 21 21 21 21 21 20 20 20 19 19 19 19 19 18 18 18 18 18 18 18 17 17 17 17 17 17 17 17 17 17 17 17 17 17 16 16 16 16 16
21 21 21 21 21 21 21 21 21 20 20 20 19 19 19 19 18 18 18 18 18 18 17 17 17 17 17 17 17 17 17 16 16 16 16 16 16 16 16 16 16 16 16
21 21 21 21 21 21 21 21 20 20 20 20 20 19 19 19 18 18 18 18 18 17 17 17 17 17 17 17 17 17 17 16 16 16 16 16 16 16 16 16 16 16 16
21 21 21 21 21 21 21 21 20 20 20 19 19 19 19 18 18 18 18 18 17 17 17 17 17 17 17 17 17 16 16 16 16 16 16 16 16 16 16 16 16 16 16
21 21 21 21 20 20 20 20 20 20 19 19 19 19 19 18 18 18 18 17 17 17 17 17 17 17 17 16 16 16 16 16 16 16 16 16 16 16 16 16 16 16 16
21 21 21 20 20 20 20 20 20 19 19 19 19 19 18 18 18 18 17 17 17 17 17 17 16 16 16 16 16 16 16 16 16 16 16 16 16 16 16 16 16 16 15
21 21 20 20 20 20 20 19 19 19 19 19 19 18 18 18 18 17 17 17 17 17 16 16 16 16 16 16 16 16 16 16 16 16 16 16 16 16 16 16 15 15 15
20 20 20 20 20 20 19 19 19 19 19 18 18 18 17 17 17 17 17 17 16 16 16 16 16 16 16 16 16 16 16 16 16 16 16 16 16 16 16 15 15 15 15
20 20 20 20 20 19 19 19 18 18 18 18 18 17 17 17 17 17 17 16 16 16 16 16 16 16 16 16 16 15 15 16 16 16 16 16 16 15 15 15 15 15 15
19 19 19 19 19 19 18 18 18 18 18 18 17 17 17 17 16 16 16 16 16 16 16 15 15 16 16 15 15 15 15 15 15 16 15 15 15 15 15 15 15 15 15
19 19 19 19 18 18 18 18 17 17 17 17 17 16 16 16 16 16 16 16 15 15 15 15 15 15 15 15 15 15 15 15 15 15 15 15 15 15 15 15 15 15 15
18 18 18 18 18 17 17 17 17 17 17 16 16 16 16 16 15 15 15 15 15 15 15 15 15 15 15 15 15 15 15 15 15 15 15 15 14 14 14 14 14 14 14
18 18 17 17 17 17 17 17 17 16 16 16 16 16 16 15 15 15 15 15 15 15 15 15 15 15 15 15 15 15 15 15 15 15 15 14 14 14 14 14 14 14 14
17 17 17 17 17 17 16 16 16 16 15 15 15 15 15 15 15 15 14 14 14 14 14 15 15 15 15 15 15 15 14 14 14 14 14 14 14 14 14 14 14 14 13
17 17 17 16 16 16 16 16 16 15 15 15 15 15 15 14 14 14 14 14 14 14 14 14 14 14 14 14 14 14 14 14 14 14 14 13 13 14 14 13 13 13 13
16 16 16 16 16 16 15 15 15 15 15 15 15 14 14 14 14 14 14 14 14 13 14 14 14 14 14 14 14 14 14 14 14 13 13 13 13 13 13 13 13 13 13
Wind_Speed
4 3 4 3 3 2 2 2 1 1 1 1 1 0 1 1 1 1 2 2 2 2 2 2 1 2 2 2 2 2 2 1 1 2 2 2 3 2 1 0 1 1 1
3 3 3 3 4 3 3 2 2 2 2 1 1 1 1 1 1 1 1 1 2 2 3 2 2 2 2 2 2 2 1 1 1 2 2 1 2 2 1 1 1 1 1
6 5 5 4 4 4 4 3 3 2 2 1 1 1 1 1 1 2 1 1 1 1 2 2 2 2 2 2 2 3 3 1 1 1 2 2 1 1 1 1 0 0 1
6 5 5 5 5 5 4 3 3 2 2 2 2 2 1 2 2 2 2 2 1 1 1 2 2 2 2 2 2 2 2 3 2 1 1 1 2 1 0 1 1 0 0
6 6 6 6 6 5 4 4 3 2 2 2 3 2 2 2 2 2 2 2 1 1 1 2 2 2 2 2 2 2 2 2 2 2 1 1 1 1 1 1 1 1 1
6 5 5 4 3 3 3 3 3 2 2 2 2 2 2 2 1 2 2 2 1 1 1 1 2 2 2 2 2 2 3 2 2 2 2 2 2 2 2 2 1 1 1
5 4 4 3 3 3 3 3 3 3 2 2 2 2 3 2 2 3 3 2 1 2 2 2 2 2 2 2 2 2 2 2 3 2 2 2 2 2 2 2 1 1 1
4 4 4 4 4 4 4 4 4 3 3 3 3 2 3 2 2 3 2 2 2 3 2 2 2 2 2 3 3 2 2 2 2 2 2 2 2 2 2 3 3 1 1
3 3 3 3 3 4 4 4 4 3 3 4 3 3 3 3 3 3 2 2 2 2 3 2 2 2 2 3 3 2 2 2 2 2 2 2 1 2 2 2 3 3 2
2 3 3 3 3 3 3 3 3 4 3 3 3 3 3 3 3 2 3 2 2 2 2 2 2 2 2 3 3 2 2 2 2 2 2 1 1 2 2 2 2 2 3
3 3 2 2 3 2 2 1 1 1 1 1 2 1 2 2 2 2 3 3 3 2 2 2 2 2 3 3 3 3 3 3 2 2 2 2 2 2 2 2 2 2 2
2 2 2 2 2 2 1 1 2 2 2 1 1 1 2 1 2 2 3 2 2 2 2 2 2 3 3 3 4 4 4 4 4 3 3 3 2 3 2 2 3 3 3
2 2 2 2 1 1 1 1 1 2 1 0 0 1 2 2 2 3 2 2 2 2 2 2 2 3 3 3 3 4 4 5 5 5 5 4 3 3 3 3 3 3 3
2 2 1 1 1 1 1 1 2 1 1 0 1 2 3 3 3 2 2 2 2 2 3 3 3 3 3 3 3 3 4 4 4 5 5 5 5 5 4 4 4 3 3
2 2 2 2 1 1 2 1 2 1 1 1 2 4 3 2 2 2 2 2 2 3 3 3 3 3 3 3 3 4 4 4 4 4 5 5 6 6 5 4 4 4 3
2 2 2 1 2 2 2 2 2 2 1 2 3 3 2 2 2 2 2 2 3 3 3 3 3 3 3 4 5 4 4 4 5 5 5 5 6 6 6 5 5 6 5
1 2 2 3 3 3 2 3 2 2 2 3 3 2 2 3 3 3 3 4 4 3 3 3 4 4 5 5 5 6 4 5 5 6 5 5 5 5 4 4 4 5 6
3 3 2 2 2 2 1 1 1 1 2 3 3 3 3 3 3 3 4 4 4 4 4 4 4 4 5 6 6 6 5 5 6 6 6 6 5 5 5 4 3 4 4
2 2 2 1 1 1 1 0 1 1 2 3 4 4 3 3 4 4 5 4 4 4 4 4 5 5 6 7 7 5 4 5 6 6 6 6 6 7 7 5 5 4 4
0 0 0 1 1 1 1 1 1 2 3 4 4 4 4 4 5 5 5 4 4 5 4 4 5 5 6 7 8 7 4 5 5 5 5 7 8 8 7 6 5 6 5
1 0 1 1 1 1 1 1 2 3 5 4 4 3 4 5 5 4 3 3 4 4 4 5 5 5 6 8 8 8 5 5 5 5 5 5 7 8 8 7 6 8 6
2 1 1 1 1 1 1 1 3 5 4 4 4 4 3 4 3 3 3 3 3 3 4 4 5 4 5 6 7 8 8 7 6 6 5 5 6 7 7 6 7 7 4
2 2 2 2 2 1 1 2 4 4 4 4 4 4 4 3 3 3 3 3 2 3 4 4 4 5 4 4 6 7 8 8 6 5 6 6 6 6 5 6 6 4 3
2 1 2 2 3 3 2 3 4 3 3 3 3 3 3 3 3 2 3 3 3 3 4 4 5 5 4 4 3 3 4 5 5 4 4 4 5 4 4 3 3 3 4
1 1 0 1 3 4 4 4 3 3 3 3 3 3 2 2 3 3 3 3 4 4 5 4 4 4 5 5 5 4 4 4 4 3 1 2 2 2 3 3 3 3 3
1 1 1 2 3 3 4 5 4 2 2 2 3 2 2 2 2 2 3 4 4 6 6 5 5 4 6 7 5 4 5 5 5 3 3 3 4 4 5 4 4 4 4
Wind_Direction
220 191 189 180 167 169 172 178 170 163 119 105 118 134 290 288 287 263 253 240 225 192 180 187 183 162 161 174 158 139 123 119 112 89 55 30 45 71 70 156 160 195 197
212 202 195 190 195 198 199 193 200 191 178 169 164 182 202 256 263 285 272 242 233 209 193 185 188 171 165 157 157 145 137 156 121 118 111 34 14 20 37 80 152 215 182
210 209 205 207 206 210 211 213 216 210 206 181 114 66 36 2 353 330 317 283 246 223 187 169 181 184 178 191 197 177 164 173 125 107 133 138 204 311 3 29 58 113 161
211 207 207 211 211 212 198 201 214 212 209 175 159 176 195 245 265 279 290 295 275 217 180 157 185 184 181 194 204 176 172 160 170 135 94 132 148 150 326 352 10 7 182
209 208 210 212 211 201 191 194 196 208 206 185 187 194 227 252 293 322 323 316 319 273 197 172 183 187 182 189 185 165 170 166 168 166 152 115 85 121 160 237 303 343 313
211 210 207 202 207 195 189 181 183 214 203 190 194 200 225 255 299 308 304 301 301 293 266 206 193 192 180 181 179 167 172 176 165 166 162 157 164 176 171 197 228 279 293
201 196 191 198 209 200 193 182 185 218 213 200 209 212 221 225 239 260 265 269 278 276 262 236 212 201 194 188 177 168 178 176 177 187 191 184 190 172 170 170 189 249 297
184 187 192 193 198 202 194 187 192 210 212 213 223 223 225 228 247 253 255 245 249 259 254 228 216 204 194 191 179 178 187 178 184 194 190 189 191 180 176 172 170 198 285
176 178 173 173 177 189 194 191 194 210 218 224 232 233 231 231 247 254 255 251 252 253 240 221 212 205 194 191 179 181 184 174 180 182 184 202 209 191 195 185 181 180 209
163 160 163 172 178 186 185 176 187 205 218 220 232 240 238 235 243 250 248 247 254 256 242 233 220 212 202 195 183 181 175 166 177 177 177 202 220 201 200 196 199 199 197
181 175 169 165 155 146 143 151 197 191 213 230 236 253 270 265 251 253 258 248 249 243 231 221 220 220 217 199 182 191 189 185 192 190 191 221 214 209 209 203 202 202 193
167 143 134 117 118 131 148 184 225 222 231 222 227 264 283 278 268 270 270 256 254 249 238 216 209 224 221 202 193 203 201 198 207 214 211 232 222 215 212 208 213 211 204
126 102 98 101 118 179 199 213 248 249 261 237 256 294 296 280 268 271 275 259 249 246 237 218 215 229 219 209 208 207 208 210 214 216 218 227 218 226 219 213 213 214 208
142 134 138 144 182 226 240 247 277 260 253 226 243 264 269 267 264 265 265 252 238 234 234 229 226 223 213 210 211 209 217 218 221 221 224 226 219 221 217 217 214 207 199
148 164 177 199 221 240 264 269 278 277 261 248 256 258 261 262 262 264 261 252 243 241 237 232 236 235 218 215 207 210 218 220 228 233 233 234 229 224 216 218 209 202 202
195 192 197 209 231 238 247 269 269 260 243 245 262 272 274 269 264 260 255 249 250 247 242 237 231 234 239 238 222 214 221 223 227 236 242 241 232 228 225 222 206 197 198
209 212 226 229 233 236 232 250 251 262 258 262 270 272 264 264 267 269 260 255 252 249 249 244 236 243 250 242 236 231 226 229 234 235 234 237 233 215 216 218 214 215 219
216 221 236 251 253 237 238 247 266 278 278 283 288 282 270 268 272 263 259 258 253 247 247 247 242 243 253 245 241 238 236 240 240 236 229 226 231 220 203 203 218 231 232
228 229 244 257 256 246 234 155 325 300 293 290 288 281 275 274 269 262 261 258 251 252 251 251 244 245 258 250 244 235 238 245 248 244 234 225 227 227 203 199 221 242 256
323 294 15 46 8 325 3 57 300 290 284 286 284 276 268 267 262 260 265 264 252 254 256 258 254 249 253 250 243 230 229 245 255 255 245 231 229 229 210 210 218 237 249
349 24 98 82 311 349 58 26 314 292 289 293 294 285 268 264 262 261 263 269 263 264 266 268 271 264 259 254 243 228 225 234 243 248 248 243 233 232 225 218 223 233 236
13 33 65 27 352 18 57 330 297 294 304 302 301 292 276 276 283 276 276 270 259 266 273 278 286 282 267 256 254 242 236 233 235 244 247 246 237 234 233 229 235 236 230
28 39 65 18 353 344 322 287 292 304 314 315 306 301 296 286 278 271 273 279 269 264 271 271 276 283 279 267 259 250 241 233 235 247 242 245 249 248 242 238 237 230 225
22 40 59 20 334 325 316 288 299 307 312 310 307 303 295 297 296 279 259 255 260 261 264 266 271 278 281 280 274 259 245 239 240 250 250 247 246 240 239 244 234 226 224
341 36 64 304 302 313 311 305 304 307 308 309 307 304 296 283 291 290 274 266 257 250 249 259 262 265 275 276 267 256 253 243 236 225 238 247 246 249 249 248 244 235 227
292 305 286 277 286 295 300 305 312 311 302 309 309 306 302 299 293 292 312 307 288 286 270 266 266 266 265 282 283 271 259 251 227 197 230 241 244 247 249 249 251 244 240
Height
1524 1525 1525 1526 1526 1526 1526 1527 1528 1528 1528 1528 1528 1528 1528 1528 1528 1528 1528 1528 1528 1529 1528 1528 1529 1529 1529 1529 1530 1530 1531 1531 1532 1532 1533 1533 1534 1534 1534 1535 1535 1535 1536
1523 1523 1524 1525 1526 1526 1526 1527 1528 1528 1528 1528 1529 1529 1529 1529 1529 1528 1528 1528 1528 1528 1528 1528 1529 1529 1529 1529 1530 1530 1531 1531 1532 1532 1532 1533 1534 1533 1534 1534 1534 1535 1536
1521 1522 1523 1524 1525 1526 1526 1527 1528 1528 1529 1529 1529 1529 1529 1529 1529 1528 1528 1528 1528 1528 1527 1527 1528 1528 1528 1529 1529 1530 1530 1531 1531 1531 1532 1533 1533 1533 1534 1534 1534 1535 1535
1520 1521 1522 1523 1524 1525 1526 1527 1527 1528 1529 1529 1529 1529 1528 1528 1528 1528 1528 1527 1527 1527 1527 1527 1527 1527 1527 1528 1529 1529 1529 1530 1530 1531 1532 1533 1533 1533 1533 1534 1534 1534 1535
1518 1519 1521 1522 1523 1524 1525 1526 1527 1527 1528 1528 1528 1528 1528 1528 1528 1528 1527 1527 1526 1526 1526 1526 1526 1526 1526 1527 1528 1528 1529 1529 1530 1530 1531 1531 1532 1533 1533 1533 1533 1534 1534
1516 1518 1520 1521 1522 1523 1524 1525 1526 1526 1527 1527 1528 1528 1528 1527 1527 1527 1526 1526 1525 1525 1525 1525 1525 1525 1525 1526 1526 1527 1527 1528 1529 1529 1530 1530 1531 1531 1532 1532 1532 1532 1533
1514 1516 1518 1519 1521 1522 1523 1524 1525 1525 1526 1526 1527 1527 1527 1527 1526 1526 1525 1525 1524 1524 1524 1524 1524 1524 1524 1525 1525 1526 1526 1527 1527 1528 1528 1529 1530 1530 1531 1531 1531 1531 1531
1513 1515 1517 1518 1519 1521 1522 1523 1524 1524 1525 1525 1526 1526 1526 1526 1525 1525 1524 1524 1524 1523 1523 1523 1523 1523 1524 1524 1524 1525 1525 1525 1526 1526 1527 1528 1528 1529 1529 1530 1530 1529 1529
1512 1514 1515 1517 1518 1520 1521 1522 1523 1524 1524 1525 1525 1525 1525 1524 1524 1523 1523 1522 1522 1522 1522 1521 1522 1522 1522 1522 1522 1523 1523 1524 1524 1525 1525 1526 1526 1527 1527 1528 1528 1529 1527
1512 1513 1515 1516 1517 1519 1520 1521 1522 1523 1523 1523 1523 1523 1523 1523 1523 1522 1522 1521 1521 1521 1520 1520 1520 1520 1520 1520 1520 1521 1521 1522 1522 1523 1523 1524 1524 1525 1525 1525 1526 1526 1526
1511 1512 1514 1515 1517 1518 1519 1520 1521 1522 1522 1522 1522 1522 1522 1521 1521 1521 1520 1520 1519 1519 1518 1518 1518 1518 1518 1518 1518 1519 1519 1519 1520 1520 1521 1521 1522 1522 1522 1523 1523 1523 1524
1511 1512 1514 1515 1516 1517 1518 1519 1520 1520 1521 1521 1521 1521 1520 1520 1519 1519 1518 1518 1517 1517 1517 1516 1516 1516 1516 1516 1516 1517 1517 1517 1517 1518 1519 1519 1519 1520 1520 1520 1520 1521 1521
1511 1513 1514 1515 1516 1517 1518 1518 1519 1519 1520 1520 1520 1519 1519 1518 1517 1517 1516 1516 1515 1515 1515 1514 1514 1514 1513 1514 1514 1514 1514 1515 1515 1516 1516 1517 1517 1517 1517 1517 1518 1518 1518
1511 1512 1514 1514 1515 1516 1517 1517 1517 1518 1518 1518 1517 1517 1517 1516 1516 1515 1514 1514 1513 1513 1512 1512 1512 1511 1511 1511 1512 1512 1512 1512 1513 1513 1513 1514 1514 1514 1515 1515 1515 1515 1515
1510 1511 1512 1513 1514 1515 1515 1515 1515 1516 1516 1515 1515 1515 1514 1514 1513 1513 1512 1512 1511 1510 1510 1510 1509 1509 1509 1509 1509 1509 1510 1510 1510 1510 1510 1511 1511 1511 1512 1512 1512 1512 1512
1509 1511 1511 1512 1513 1513 1513 1513 1513 1513 1513 1513 1513 1512 1512 1511 1511 1510 1510 1509 1509 1508 1507 1507 1506 1506 1506 1506 1507 1507 1507 1507 1507 1507 1507 1507 1507 1508 1508 1508 1508 1508 1508
1509 1510 1511 1511 1511 1511 1512 1512 1511 1511 1511 1510 1510 1509 1509 1508 1508 1507 1507 1506 1506 1505 1504 1504 1504 1503 1503 1503 1503 1503 1503 1503 1503 1503 1503 1503 1504 1504 1504 1504 1504 1505 1505
1509 1509 1510 1510 1510 1510 1510 1510 1510 1509 1509 1508 1507 1506 1506 1505 1505 1504 1503 1503 1502 1502 1501 1500 1500 1500 1500 1500 1500 1500 1499 1499 1499 1499 1499 1500 1500 1500 1500 1500 1500 1500 1500
1509 1509 1509 1509 1509 1509 1508 1508 1508 1507 1506 1505 1504 1503 1502 1502 1501 1500 1500 1499 1499 1498 1498 1497 1497 1496 1496 1496 1496 1496 1496 1495 1495 1495 1495 1496 1496 1496 1496 1497 1496 1496 1496
1508 1508 1508 1508 1508 1507 1507 1506 1505 1505 1503 1502 1501 1500 1499 1498 1498 1497 1497 1496 1495 1494 1494 1494 1493 1493 1492 1492 1492 1492 1491 1491 1491 1491 1491 1491 1492 1492 1492 1492 1492 1492 1492
1507 1507 1507 1506 1506 1506 1505 1504 1503 1502 1501 1500 1498 1497 1497 1496 1495 1494 1493 1493 1492 1491 1491 1490 1490 1489 1489 1488 1488 1488 1487 1486 1486 1486 1486 1486 1487 1487 1488 1488 1488 1488 1488
1505 1506 1505 1505 1505 1504 1504 1502 1501 1500 1499 1497 1496 1495 1494 1493 1492 1491 1490 1489 1488 1488 1487 1486 1486 1485 1485 1484 1484 1483 1483 1482 1481 1481 1482 1482 1482 1483 1483 1483 1483 1484 1484
1504 1504 1504 1503 1503 1502 1501 1500 1499 1498 1496 1495 1493 1492 1491 1490 1489 1488 1487 1486 1485 1484 1483 1482 1481 1481 1480 1480 1479 1478 1478 1478 1477 1477 1477 1477 1478 1478 1478 1478 1478 1478 1478
1503 1503 1502 1501 1501 1500 1499 1498 1497 1495 1494 1492 1491 1489 1488 1487 1486 1485 1484 1483 1482 1480 1479 1478 1477 1476 1475 1475 1474 1473 1473 1473 1472 1472 1472 1472 1473 1473 1473 1473 1473 1473 1473
1503 1502 1501 1500 1499 1498 1497 1496 1494 1492 1491 1490 1488 1487 1486 1485 1484 1483 1482 1481 1479 1478 1476 1475 1474 1472 1471 1470 1470 1469 1468 1468 1467 1467 1467 1467 1467 1467 1467 1467 1467 1468 1468
1501 1500 1499 1498 1497 1496 1495 1493 1491 1490 1488 1487 1485 1484 1483 1482 1480 1479 1479 1478 1477 1475 1473 1472 1470 1469 1468 1467 1466 1465 1464 1464 1463 1462 1461 1461 1462 1462 1462 1462 1462 1462 1462